Wind_Speed
29 26 25 25 24 25 25 24 23 24 24 24 26 25 25 26 25 24 23 24 24 24 23 22 22 23 23 23 23 23 23 23 23 23 23 23 23 23 23 23 23 22 22 22
29 27 26 26 27 26 26 26 25 26 27 26 26 27 27 27 26 25 25 24 24 24 23 23 22 23 24 24 25 25 24 24 24 24 24 25 25 24 25 24 24 24 25 25
29 27 28 28 26 25 26 26 25 27 27 27 28 27 27 28 27 26 25 25 25 25 24 24 24 25 25 26 26 26 26 25 26 26 26 26 26 27 26 26 26 26 27 28
29 28 31 28 26 27 26 26 26 29 29 30 31 28 28 29 29 28 27 26 25 25 25 25 25 26 26 26 27 27 27 27 27 27 27 28 27 27 28 28 28 28 29 30
28 29 30 26 25 25 27 28 28 29 29 30 31 32 31 30 30 30 28 27 27 26 27 26 26 27 27 27 27 28 28 28 29 29 30 30 30 30 30 30 30 31 31 32
28 28 27 24 24 26 28 30 28 29 29 30 32 31 32 30 30 30 29 29 29 29 28 28 29 29 28 28 28 28 29 29 30 31 31 31 32 32 33 33 32 32 32 33
28 28 26 25 26 26 27 28 29 30 30 31 32 32 31 30 30 30 29 29 29 30 30 30 30 29 28 29 29 30 30 30 31 32 32 33 33 34 34 34 34 34 33 33
28 27 27 26 26 27 28 29 30 31 32 33 33 32 32 32 31 31 31 30 30 30 30 31 31 31 31 30 31 31 31 32 32 32 33 34 34 34 34 34 34 34 34 34
28 29 29 28 29 29 30 31 31 32 33 35 35 32 33 34 34 34 33 32 32 31 31 32 32 32 32 31 31 32 32 32 33 33 33 33 33 34 34 35 35 35 35 35
25 27 28 29 30 31 31 32 32 32 33 33 33 32 34 35 35 34 33 33 33 32 32 32 32 32 32 32 32 32 32 32 32 32 33 33 33 35 35 36 35 35 35 35
26 26 27 30 30 31 32 33 33 32 32 33 32 33 34 34 33 33 33 33 34 34 33 33 33 33 33 33 32 32 32 32 33 33 33 34 34 35 35 36 36 35 35 35
28 29 29 29 29 31 33 34 33 33 33 33 33 32 32 32 32 32 33 34 34 34 34 34 33 33 33 33 33 33 33 33 34 34 34 35 35 35 35 35 35 35 36 36
29 30 30 30 30 31 32 32 32 32 33 33 33 33 32 32 32 32 33 33 34 34 34 34 34 34 34 34 34 34 34 34 35 35 35 35 35 35 34 35 36 35 36 36
30 30 31 30 29 29 31 32 31 31 32 32 33 32 32 32 32 32 32 32 32 34 34 33 33 33 33 33 34 34 34 34 35 35 35 34 34 34 34 35 35 35 35 35
30 30 30 29 30 30 31 32 31 31 32 32 33 31 30 30 31 30 31 31 32 32 32 32 32 32 33 33 33 33 34 34 35 35 34 33 33 34 34 34 35 35 35 34
31 31 30 30 30 30 30 31 32 33 33 32 32 31 31 30 30 30 31 31 31 31 31 31 32 32 32 32 32 33 33 33 33 33 33 33 33 33 33 34 34 34 34 33
30 30 31 30 30 30 30 31 32 32 32 31 31 31 31 31 31 31 31 31 31 31 31 31 31 32 33 32 32 33 32 32 32 32 32 32 32 33 33 33 33 32 31 30
30 31 30 30 29 29 30 30 30 30 30 29 29 30 30 30 30 30 30 30 30 31 30 30 30 30 30 31 32 33 32 32 32 32 32 32 32 32 32 32 31 31 31 31
30 31 30 29 28 28 28 28 29 29 28 29 29 29 29 29 30 30 30 30 30 29 28 29 30 30 30 30 30 31 31 32 32 32 32 32 33 32 31 30 30 30 31 32
28 29 28 28 28 28 27 28 28 28 28 29 29 29 29 29 28 28 28 28 28 28 28 28 28 29 29 30 30 31 30 30 31 31 31 30 30 29 29 28 29 30 30 31
27 27 27 27 27 27 27 27 27 27 27 27 28 28 28 27 27 28 28 28 28 28 28 28 28 29 28 28 29 29 28 28 28 29 29 29 28 27 27 28 28 29 29 29
24 25 25 26 27 26 27 27 27 27 27 27 27 27 27 27 27 27 28 27 27 27 27 27 27 27 27 27 27 27 27 27 27 27 27 27 27 28 28 28 29 29 29 29
23 23 24 25 25 25 26 27 27 27 27 27 27 27 27 27 27 27 27 26 26 26 27 27 26 26 26 26 26 26 26 27 27 26 26 26 26 27 28 28 28 28 28 28
24 24 24 24 24 25 25 26 27 27 27 27 27 27 27 27 27 27 27 26 26 27 27 26 25 26 26 26 26 26 26 26 26 26 26 26 26 26 26 27 27 28 28 28
23 23 23 23 24 25 25 25 26 26 27 27 27 27 26 27 27 28 27 26 26 25 25 24 24 24 25 25 25 25 25 25 25 25 26 26 26 26 26 26 26 27 27 27
22 23 23 23 23 23 23 24 24 24 24 25 26 26 26 26 26 26 26 25 24 24 23 23 24 24 24 24 24 25 25 25 24 25 25 25 25 26 26 26 26 26 26 26
21 22 21 21 21 22 22 23 23 23 24 25 25 25 25 25 24 24 23 23 23 23 24 24 25 24 24 24 25 25 25 25 25 26 26 26 26 26 26 26 26 26 26 26
Wind_Direction
241 246 246 249 249 249 249 247 249 254 258 267 272 272 274 275 276 279 279 280 282 282 280 280 284 286 287 287 288 289 290 291 293 293 294 294 293 293 293 293 293 293 292 292
243 243 247 248 252 252 251 250 251 256 262 267 268 267 271 274 275 278 278 279 282 282 282 282 283 285 286 286 285 286 287 289 290 292 292 292 291 291 292 292 293 292 292 293
244 246 249 250 252 254 252 251 252 255 259 263 263 265 272 275 276 277 277 279 279 279 281 283 283 283 283 283 282 282 284 285 288 290 291 291 293 292 291 292 292 292 292 293
246 245 248 252 256 257 256 256 254 257 260 263 263 267 269 271 273 276 276 278 277 279 280 282 283 282 283 283 282 281 281 283 285 287 288 289 291 292 291 291 292 292 292 292
244 247 250 251 251 255 256 254 253 256 261 262 265 270 272 271 272 274 276 276 276 277 279 280 280 280 281 282 283 283 283 282 283 285 286 287 289 291 290 290 290 290 291 291
244 245 248 252 254 253 254 257 257 257 259 261 264 268 270 271 273 274 275 275 275 277 278 279 279 279 280 281 282 283 283 282 283 284 285 286 287 289 289 289 290 290 291 291
246 250 251 252 254 255 253 254 255 258 261 262 264 266 270 273 273 273 273 273 274 277 278 278 278 280 280 281 283 283 282 282 282 282 283 284 286 287 287 288 289 289 290 291
246 249 250 251 255 255 255 256 257 258 261 263 265 266 269 270 271 272 271 272 273 275 277 277 279 279 281 281 281 282 282 282 282 282 282 283 283 284 285 287 288 289 290 290
249 250 252 252 254 257 259 260 260 262 264 265 266 268 271 272 272 272 272 272 273 274 276 277 278 279 280 281 281 282 282 281 281 281 282 283 282 283 283 286 286 287 288 289
248 250 251 251 254 259 261 261 263 264 267 268 269 271 272 273 275 275 273 273 274 275 276 277 278 279 281 282 283 282 282 282 281 280 282 283 283 283 285 286 287 287 288 290
245 248 253 254 255 259 264 265 265 267 269 271 272 274 274 275 277 275 273 273 274 275 276 277 278 279 279 280 280 280 280 281 282 281 281 282 283 283 284 285 285 286 288 291
246 249 253 257 260 262 265 265 266 269 271 272 273 273 275 275 276 276 276 275 275 275 276 276 277 277 278 278 278 278 279 280 281 280 280 282 283 283 283 283 285 286 288 289
248 252 257 262 264 264 266 266 267 270 272 273 273 272 273 275 276 277 278 277 276 276 276 275 275 276 276 277 277 277 278 279 279 280 281 281 282 282 282 283 285 286 288 289
249 254 258 262 263 264 267 269 270 272 273 273 272 272 274 275 275 277 278 279 279 277 276 274 275 276 276 276 276 276 277 278 279 279 280 281 281 281 281 283 285 287 288 289
252 256 259 263 265 267 268 270 272 273 273 274 274 273 274 275 276 277 279 280 281 281 278 276 278 277 277 276 277 278 278 277 277 278 279 280 281 282 283 283 284 287 288 291
253 256 259 261 265 267 269 271 272 273 273 273 274 274 275 275 276 278 279 281 282 282 281 280 279 278 277 277 278 279 279 277 276 277 280 281 283 284 284 284 285 287 289 290
253 256 259 263 266 268 269 270 272 273 274 273 274 274 276 277 277 278 279 280 282 282 282 281 280 279 277 277 279 279 278 278 278 280 282 284 285 287 286 285 286 287 287 289
254 258 262 265 268 269 270 271 272 274 275 275 275 276 277 279 279 279 280 281 283 283 283 282 281 281 280 280 279 278 278 280 282 283 283 284 284 286 286 286 285 286 287 289
254 257 261 264 267 269 270 270 271 272 273 274 274 275 277 279 279 278 278 279 282 282 282 284 283 282 282 283 283 282 281 283 285 285 284 284 284 284 284 283 283 285 288 290
255 258 261 262 265 269 270 271 271 270 271 274 276 277 278 279 278 277 279 281 283 286 286 285 285 284 284 285 285 286 286 286 287 287 287 287 286 286 285 284 285 286 287 289
256 257 259 261 264 267 268 270 272 273 274 275 276 277 277 278 279 280 280 281 284 286 285 286 288 288 287 287 287 286 287 288 288 289 288 288 288 287 286 284 285 286 288 290
257 257 258 260 262 266 268 270 272 274 276 276 277 278 278 279 280 281 282 283 284 284 285 287 289 288 288 287 288 288 289 289 289 290 288 288 289 287 285 286 287 288 289 291
257 259 262 264 265 267 269 270 272 274 276 277 279 280 281 281 281 282 283 285 286 286 287 289 289 288 287 288 289 289 289 288 288 288 287 287 287 288 287 287 288 289 291 292
259 262 265 267 267 268 271 273 274 276 277 278 278 278 279 280 280 281 282 285 287 287 287 288 288 288 289 289 289 289 289 288 287 287 287 287 287 288 289 289 289 290 292 293
261 263 265 266 268 269 272 275 275 275 276 276 277 277 278 279 280 281 282 283 285 287 288 287 289 290 290 290 291 290 290 290 289 287 286 286 286 287 290 292 293 293 293 294
262 263 265 266 268 271 274 276 277 277 278 278 278 278 279 279 280 281 281 281 282 284 285 286 287 289 289 288 290 290 290 290 289 288 287 287 288 288 289 290 292 293 293 294
261 262 263 263 265 271 276 279 280 280 281 281 281 280 279 278 280 282 282 282 283 283 283 284 285 287 288 289 289 288 289 289 290 290 290 290 291 292 293 294 293 293 294 294
Height
5871 5873 5875 5877 5879 5880 5881 5882 5884 5883 5883 5882 5880 5878 5877 5877 5877 5876 5877 5876 5875 5874 5873 5872 5872 5871 5870 5869 5868 5867 5866 5865 5864 5863 5862 5861 5860 5859 5858 5857 5856 5854 5853 5851
5864 5866 5867 5869 5872 5873 5874 5875 5876 5877 5877 5876 5873 5872 5871 5871 5871 5870 5870 5870 5869 5869 5868 5867 5866 5866 5865 5863 5862 5861 5860 5860 5859 5858 5856 5855 5854 5853 5852 5851 5850 5849 5847 5846
5856 5859 5860 5861 5864 5866 5867 5868 5869 5869 5870 5869 5866 5864 5865 5864 5864 5864 5864 5863 5863 5862 5861 5860 5860 5859 5858 5857 5856 5855 5854 5854 5853 5852 5850 5849 5848 5847 5846 5844 5843 5842 5841 5839
5848 5851 5852 5857 5858 5859 5859 5860 5862 5861 5861 5860 5857 5857 5858 5858 5857 5857 5857 5856 5856 5855 5854 5854 5853 5852 5851 5850 5849 5848 5848 5847 5846 5845 5844 5843 5841 5840 5839 5837 5836 5835 5833 5832
5841 5842 5844 5849 5851 5851 5852 5852 5853 5853 5852 5851 5850 5850 5850 5850 5849 5849 5849 5849 5849 5848 5848 5847 5846 5845 5844 5843 5842 5841 5840 5839 5839 5838 5837 5835 5834 5833 5831 5830 5829 5827 5825 5824
5833 5835 5838 5842 5843 5843 5845 5844 5845 5844 5843 5843 5842 5843 5842 5842 5842 5842 5842 5842 5841 5841 5840 5839 5838 5837 5836 5836 5835 5834 5833 5832 5831 5830 5829 5828 5827 5825 5824 5822 5820 5819 5817 5815
5826 5828 5831 5834 5833 5835 5837 5836 5835 5835 5835 5834 5834 5834 5834 5834 5834 5834 5834 5833 5833 5832 5832 5831 5830 5828 5827 5827 5827 5826 5825 5824 5823 5822 5821 5820 5818 5817 5815 5813 5812 5810 5808 5806
5819 5821 5825 5825 5825 5827 5826 5826 5827 5827 5827 5825 5825 5825 5825 5825 5825 5824 5824 5825 5824 5824 5823 5823 5822 5820 5819 5818 5818 5817 5816 5815 5814 5813 5812 5810 5809 5808 5806 5804 5803 5800 5799 5797
5812 5815 5815 5816 5817 5817 5817 5818 5818 5818 5818 5817 5817 5817 5817 5816 5816 5816 5816 5816 5816 5815 5815 5814 5813 5812 5811 5811 5809 5808 5807 5806 5805 5803 5802 5801 5799 5798 5797 5795 5793 5791 5789 5788
5804 5805 5807 5808 5808 5809 5809 5810 5810 5809 5809 5809 5808 5808 5808 5807 5807 5807 5807 5807 5807 5806 5806 5805 5804 5803 5802 5801 5800 5799 5798 5796 5795 5794 5793 5791 5790 5789 5787 5786 5784 5782 5780 5778
5796 5797 5798 5799 5800 5800 5801 5801 5801 5800 5800 5800 5799 5799 5799 5798 5797 5797 5798 5798 5797 5797 5796 5796 5795 5794 5793 5792 5791 5790 5788 5787 5786 5785 5783 5782 5781 5779 5778 5777 5775 5773 5771 5769
5788 5789 5790 5790 5790 5791 5791 5792 5792 5792 5792 5791 5791 5790 5789 5789 5788 5788 5788 5787 5787 5787 5786 5786 5785 5784 5783 5782 5781 5780 5779 5777 5776 5775 5774 5772 5771 5769 5768 5767 5765 5763 5762 5760
5779 5780 5781 5782 5782 5782 5781 5782 5783 5783 5783 5782 5781 5781 5780 5780 5779 5779 5779 5778 5777 5777 5776 5775 5775 5774 5773 5772 5771 5770 5768 5767 5766 5765 5764 5762 5761 5760 5759 5757 5756 5754 5752 5750
5771 5772 5773 5773 5772 5772 5772 5773 5774 5775 5774 5772 5771 5770 5771 5770 5770 5770 5770 5769 5767 5766 5765 5764 5764 5764 5763 5762 5761 5759 5758 5757 5755 5755 5754 5752 5751 5750 5749 5748 5746 5744 5742 5739
5764 5765 5766 5765 5765 5764 5765 5766 5766 5766 5765 5763 5762 5761 5762 5761 5761 5761 5760 5759 5758 5757 5755 5754 5754 5754 5753 5752 5751 5749 5748 5747 5745 5744 5743 5742 5741 5740 5739 5737 5736 5734 5732 5730
5755 5757 5758 5758 5758 5758 5758 5758 5757 5757 5756 5755 5754 5753 5753 5752 5752 5752 5751 5751 5749 5748 5747 5745 5744 5744 5743 5742 5741 5740 5738 5737 5735 5734 5734 5732 5731 5730 5728 5727 5725 5724 5722 5720
5747 5748 5750 5750 5750 5750 5750 5749 5749 5748 5747 5746 5746 5745 5744 5744 5743 5743 5742 5742 5740 5739 5738 5737 5735 5734 5733 5732 5731 5730 5729 5727 5726 5725 5724 5723 5722 5720 5719 5717 5715 5714 5712 5710
5739 5740 5741 5742 5742 5741 5741 5741 5740 5739 5738 5738 5737 5736 5736 5735 5734 5734 5733 5732 5731 5730 5729 5727 5726 5725 5723 5723 5722 5721 5720 5719 5718 5716 5715 5714 5712 5710 5709 5708 5706 5705 5703 5701
5731 5732 5733 5733 5733 5733 5732 5732 5731 5731 5731 5730 5729 5728 5727 5727 5725 5724 5724 5723 5722 5721 5720 5718 5717 5716 5715 5714 5713 5712 5711 5709 5708 5707 5706 5704 5703 5701 5700 5699 5697 5696 5694 5693
5723 5724 5724 5725 5726 5725 5724 5724 5724 5723 5723 5722 5722 5721 5720 5719 5717 5716 5715 5715 5714 5713 5712 5710 5709 5707 5706 5705 5704 5703 5702 5701 5699 5698 5697 5695 5693 5692 5691 5689 5688 5687 5685 5684
5715 5715 5717 5717 5718 5718 5717 5717 5717 5716 5715 5715 5714 5713 5712 5711 5710 5709 5708 5708 5707 5706 5704 5703 5701 5700 5698 5697 5696 5695 5694 5693 5691 5689 5688 5687 5685 5684 5683 5681 5680 5678 5676 5675
5707 5708 5709 5710 5710 5710 5710 5710 5710 5709 5708 5707 5706 5705 5704 5703 5702 5702 5701 5700 5699 5698 5696 5695 5693 5692 5690 5689 5688 5687 5686 5684 5683 5681 5680 5678 5677 5676 5675 5673 5671 5670 5668 5666
5700 5701 5702 5703 5703 5703 5703 5702 5702 5702 5701 5700 5699 5698 5697 5696 5695 5694 5693 5692 5691 5690 5688 5687 5685 5684 5683 5682 5681 5679 5678 5677 5675 5674 5672 5671 5669 5668 5666 5664 5663 5661 5659 5657
5694 5695 5695 5696 5696 5696 5696 5695 5695 5694 5693 5692 5691 5690 5689 5688 5687 5686 5685 5684 5683 5682 5680 5679 5678 5677 5675 5674 5673 5672 5670 5669 5667 5666 5664 5663 5661 5659 5657 5656 5654 5652 5651 5649
5688 5689 5689 5689 5689 5689 5688 5688 5687 5686 5685 5684 5683 5682 5681 5680 5680 5679 5678 5677 5675 5674 5673 5672 5671 5669 5668 5667 5665 5664 5662 5660 5659 5658 5656 5654 5653 5651 5649 5647 5645 5644 5642 5640
5682 5682 5682 5682 5682 5682 5681 5681 5680 5678 5677 5676 5675 5674 5673 5672 5671 5670 5669 5668 5668 5667 5666 5665 5663 5662 5661 5659 5657 5656 5654 5652 5651 5649 5648 5646 5644 5642 5641 5639 5637 5635 5633 5631
5676 5676 5676 5676 5676 5675 5675 5674 5673 5671 5670 5669 5668 5666 5665 5664 5663 5662 5662 5661 5660 5659 5658 5657 5656 5654 5652 5651 5649 5647 5646 5644 5643 5641 5639 5637 5635 5634 5632 5630 5628 5626 5625 5623